KD4IZ-13 Weather Reports


time (UTC)temp
F
wind
direction
speed
knots
gust
knots
rain 1hr
in
rain 24hr
in
rain mn
in
humidity
%
barometer
mb
20260504204736 73 209 8.7 11.3 0.00 0.00 0.00 47 1011.1
20260504204234 72 227 3.5 4.3 0.00 0.00 0.00 45 1011.3
20260504203733 73 234 7.0 7.8 0.00 0.00 0.00 44 1011.1
20260504203230 73 211 8.7 13.0 0.00 0.00 0.00 45 1011.2
20260504202729 72 254 6.1 7.0 0.00 0.00 0.00 44 1011.4
20260504202227 72 216 7.0 7.8 0.00 0.00 0.00 44 1011.6
20260504201724 73 257 7.0 9.6 0.00 0.00 0.00 45 1011.6
20260504201221 72 256 6.1 7.0 0.00 0.00 0.00 44 1011.4
20260504200719 72 201 4.3 6.1 0.00 0.00 0.00 44 1011.4
20260504200214 71 252 4.3 6.1 0.00 0.00 0.00 47 1011.7
20260504195711 72 262 6.1 8.7 0.00 0.00 0.00 48 1011.7
20260504195207 72 263 8.7 11.3 0.00 0.00 0.00 43 1011.9
20260504194704 71 283 4.3 5.2 0.00 0.00 0.00 43 1011.9
20260504194200 72 255 5.2 7.8 0.00 0.00 0.00 45 1012.1
20260504193657 72 217 7.8 9.6 0.00 0.00 0.00 45 1012.2
20260504193155 71 209 7.0 7.8 0.00 0.00 0.00 44 1012.3
20260504192652 71 271 5.2 7.0 0.00 0.00 0.00 45 1012.4
20260504192150 71 243 6.1 9.6 0.00 0.00 0.00 44 1012.5
20260504191648 71 267 4.3 5.2 0.00 0.00 0.00 44 1012.4
20260504191139 70 249 8.7 9.6 0.00 0.00 0.00 45 1012.5
20260504190635 71 230 7.8 9.6 0.00 0.00 0.00 47 1012.5
20260504190132 70 254 7.0 7.8 0.00 0.00 0.00 44 1012.6
20260504185628 70 245 5.2 7.0 0.00 0.00 0.00 44 1012.9
20260504185125 71 225 10.4 12.2 0.00 0.00 0.00 46 1012.9
20260504184621 70 190 3.5 5.2 0.00 0.00 0.00 46 1012.8
20260504184116 70 275 7.8 8.7 0.00 0.00 0.00 43 1013.0
20260504183613 70 250 7.8 8.7 0.00 0.00 0.00 45 1013.1
20260504183111 70 245 6.1 7.8 0.00 0.00 0.00 45 1013.1
20260504182608 70 236 3.5 4.3 0.00 0.00 0.00 44 1013.2
20260504182105 69 182 10.4 12.2 0.00 0.00 0.00 43 1013.2
20260504181603 70 250 7.0 7.8 0.00 0.00 0.00 45 1013.2
20260504181100 70 225 12.2 14.8 0.00 0.00 0.00 44 1013.4
20260504180559 69 298 7.8 9.6 0.00 0.00 0.00 46 1013.2
20260504180058 69 258 4.3 5.2 0.00 0.00 0.00 48 1013.5
20260504175555 69 242 10.4 13.0 0.00 0.00 0.00 45 1013.2
20260504175051 68 212 5.2 7.0 0.00 0.00 0.00 46 1013.5
20260504174549 69 250 9.6 12.2 0.00 0.00 0.00 44 1013.7
20260504174046 68 230 8.7 11.3 0.00 0.00 0.00 44 1013.8
20260504173542 68 181 5.2 6.1 0.00 0.00 0.00 50 1013.6
20260504173040 68 262 4.3 7.0 0.00 0.00 0.00 45 1013.7
20260504172536 68 237 8.7 9.6 0.00 0.00 0.00 44 1013.6
20260504172033 68 240 8.7 11.3 0.00 0.00 0.00 46 1014.0
20260504171530 68 151 5.2 6.1 0.00 0.00 0.00 44 1013.9
20260504171027 68 256 7.0 7.8 0.00 0.00 0.00 45 1014.2
20260504170522 68 256 6.1 7.8 0.00 0.00 0.00 48 1014.2
20260504160443 66 229 6.1 7.0 0.00 0.00 0.00 46 1014.7
20260504150907 64 268 4.3 6.1 0.00 0.00 0.00 50 1015.4
20260504150403 64 191 3.5 4.3 0.00 0.00 0.00 48 1015.2
20260504141333 61 244 7.0 8.7 0.00 0.00 0.00 52 1015.4
20260504140829 61 277 6.1 7.0 0.00 0.00 0.00 50 1015.3
20260504140325 61 198 4.3 6.1 0.00 0.00 0.00 51 1015.5
20260504130754 56 205 3.5 5.2 0.00 0.00 0.00 63 1015.8
20260504130250 56 225 4.3 5.2 0.00 0.00 0.00 64 1015.8
20260504120214 51 233 4.3 5.2 0.00 0.00 0.00 71 1015.9
20260504110636 40 359 0.0 0.0 0.00 0.00 0.00 95 1016.1
20260504110132 40 359 0.0 0.0 0.00 0.00 0.00 97 1016.0
20260504100557 39 2 0.0 0.0 0.00 0.00 0.00 95 1016.0
20260504081951 38 3 0.9 0.9 0.00 0.00 0.00 95 1016.6
20260504081448 37 342 0.0 0.9 0.00 0.00 0.00 96 1016.7
20260504080944 37 342 0.0 0.0 0.00 0.00 0.00 95 1016.5
20260504080441 38 342 0.0 0.0 0.00 0.00 0.00 96 1016.3
20260504070409 37 342 0.0 0.0 0.00 0.00 0.00 94 1016.6
20260504050253 37 343 0.0 0.0 0.00 0.00 0.00 91 1016.9
20260504045751 38 343 0.0 0.0 0.00 0.00 0.00 88 1016.8
20260504045245 39 343 0.0 0.0 0.00 0.00 0.00 88 1017.1
20260504044743 39 343 0.0 0.0 0.00 0.00 0.00 88 1016.9
20260504044240 40 343 0.0 0.0 0.00 0.00 0.00 87 1016.8
20260504043737 40 343 0.0 0.9 0.00 0.00 0.00 88 1016.9
20260504043234 40 343 0.0 0.9 0.00 0.00 0.00 87 1016.9
20260504042732 40 343 0.0 0.0 0.00 0.00 0.00 84 1016.9
20260504042227 40 343 0.0 0.9 0.00 0.00 0.00 82 1016.9
20260504041724 40 343 0.0 0.0 0.00 0.00 0.00 84 1016.8
20260504041220 41 343 0.0 0.0 0.00 0.00 0.00 82 1016.8
20260504040711 40 343 0.9 0.9 0.00 0.00 0.00 83 1016.5
20260504040208 39 343 0.9 0.9 0.00 0.00 0.00 85 1016.7
20260504035704 40 343 0.0 0.0 0.00 0.00 0.00 83 1016.8
20260504035202 41 343 0.0 0.0 0.00 0.00 0.00 83 1016.7
20260504034659 41 343 0.0 0.0 0.00 0.00 0.00 82 1016.6
20260504034156 41 343 0.0 0.9 0.00 0.00 0.00 83 1016.7
20260504033654 41 343 0.9 0.9 0.00 0.00 0.00 82 1016.8
20260504033151 41 343 0.0 0.0 0.00 0.00 0.00 81 1016.5
20260504032647 41 343 0.0 0.0 0.00 0.00 0.00 82 1016.7
20260504032145 41 343 0.0 0.0 0.00 0.00 0.00 82 1016.7
20260504031642 41 343 0.0 0.0 0.00 0.00 0.00 81 1016.4
20260504031138 42 343 0.0 0.0 0.00 0.00 0.00 78 1016.4
20260504030635 43 343 0.0 0.0 0.00 0.00 0.00 76 1016.5
20260504030132 43 343 0.9 0.9 0.00 0.00 0.00 76 1016.4
20260504025628 43 343 0.0 0.0 0.00 0.00 0.00 76 1016.6
20260504025125 43 343 0.0 0.0 0.00 0.00 0.00 75 1016.6
20260504024623 44 343 0.0 0.9 0.00 0.00 0.00 74 1016.4
20260504024119 44 343 0.0 0.9 0.00 0.00 0.00 74 1016.6
20260504023616 44 343 0.9 0.9 0.00 0.00 0.00 73 1016.2
20260504023111 45 343 0.0 0.0 0.00 0.00 0.00 70 1016.3
20260504022608 44 343 0.0 0.9 0.00 0.00 0.00 69 1016.1
20260504022104 44 343 0.0 0.9 0.00 0.00 0.00 69 1016.2
20260504021603 45 343 0.0 0.0 0.00 0.00 0.00 68 1016.5
20260504021059 46 343 0.0 0.9 0.00 0.00 0.00 67 1016.3
20260504020556 46 343 0.0 0.0 0.00 0.00 0.00 65 1016.2
20260504020051 47 343 0.0 0.0 0.00 0.00 0.00 63 1016.3
20260504015548 46 343 0.0 0.0 0.00 0.00 0.00 65 1016.2
20260504015044 46 343 0.0 0.0 0.00 0.00 0.00 63 1016.3
20260504014541 47 343 0.0 0.0 0.00 0.00 0.00 62 1016.3
20260504014038 48 343 0.0 0.0 0.00 0.00 0.00 62 1016.3
20260504013536 48 343 0.0 0.0 0.00 0.00 0.00 60 1016.3
20260504013032 48 343 0.9 0.9 0.00 0.00 0.00 60 1016.0
20260504012529 48 343 0.0 0.0 0.00 0.00 0.00 59 1016.1
20260504012022 48 343 0.0 0.0 0.00 0.00 0.00 59 1016.2
20260504011518 49 343 0.9 0.9 0.00 0.00 0.00 59 1016.1
20260504011014 49 343 0.0 0.0 0.00 0.00 0.00 58 1015.9
20260504010510 50 343 0.0 0.0 0.00 0.00 0.00 56 1015.9
20260504010006 49 343 0.0 0.0 0.00 0.00 0.00 57 1015.9
20260504005503 49 343 0.0 0.0 0.00 0.00 0.00 58 1015.8
20260504005001 50 343 0.0 0.0 0.00 0.00 0.00 56 1015.9
20260504004458 50 343 0.0 0.0 0.00 0.00 0.00 56 1015.9
20260504003955 50 343 0.0 0.0 0.00 0.00 0.00 56 1015.8
20260504003451 50 343 0.0 0.0 0.00 0.00 0.00 56 1015.8
20260504002948 51 343 0.0 0.0 0.00 0.00 0.00 55 1015.8
20260504002445 51 343 0.0 0.0 0.00 0.00 0.00 56 1015.7
20260504001943 51 343 0.0 0.0 0.00 0.00 0.00 55 1015.7
20260504001440 52 343 0.0 0.0 0.00 0.00 0.00 54 1015.3
20260504000936 53 343 0.0 0.0 0.00 0.00 0.00 52 1015.5
20260504000433 54 343 0.0 0.0 0.00 0.00 0.00 52 1015.4
20260503235931 55 285 0.0 0.0 0.00 0.00 0.00 48 1015.5
20260503235428 55 285 0.9 0.9 0.00 0.00 0.00 48 1015.4
20260503234926 56 279 0.9 1.7 0.00 0.00 0.00 47 1015.5
20260503234423 57 277 1.7 1.7 0.00 0.00 0.00 45 1015.4
20260503233921 57 301 1.7 1.7 0.00 0.00 0.00 44 1015.2
20260503233417 58 344 0.9 0.9 0.00 0.00 0.00 42 1015.2
20260503232914 58 229 3.5 5.2 0.00 0.00 0.00 43 1015.2
20260503232411 58 296 4.3 5.2 0.00 0.00 0.00 41 1014.8
20260503231909 59 293 1.7 2.6 0.00 0.00 0.00 41 1015.1
20260503231405 59 312 5.2 7.0 0.00 0.00 0.00 40 1015.1
20260503230902 59 293 1.7 2.6 0.00 0.00 0.00 44 1015.0
20260503230358 59 266 3.5 4.3 0.00 0.00 0.00 42 1014.9
20260503225856 59 305 6.1 7.0 0.00 0.00 0.00 40 1015.0
20260503225352 59 321 3.5 4.3 0.00 0.00 0.00 41 1014.9
20260503224848 60 258 2.6 4.3 0.00 0.00 0.00 42 1015.0
20260503224346 60 249 1.7 1.7 0.00 0.00 0.00 41 1015.1
20260503223843 60 330 1.7 1.7 0.00 0.00 0.00 41 1015.2
20260503223341 60 241 1.7 2.6 0.00 0.00 0.00 41 1015.1
20260503222836 59 251 4.3 6.1 0.00 0.00 0.00 40 1015.1
20260503222335 60 301 7.8 8.7 0.00 0.00 0.00 39 1015.1
20260503221832 60 349 2.6 4.3 0.00 0.00 0.00 40 1015.1
20260503221331 60 343 1.7 1.7 0.00 0.00 0.00 41 1014.9
20260503220827 59 241 6.1 7.8 0.00 0.00 0.00 41 1015.0
20260503220324 59 248 4.3 6.1 0.00 0.00 0.00 41 1015.3
20260503215820 60 6 2.6 4.3 0.00 0.00 0.00 39 1015.3
20260503215318 60 317 3.5 5.2 0.00 0.00 0.00 39 1015.1
20260503214816 59 359 2.6 4.3 0.00 0.00 0.00 40 1015.2
20260503214313 60 245 1.7 2.6 0.00 0.00 0.00 39 1015.2
20260503213810 61 310 4.3 6.1 0.00 0.00 0.00 39 1015.0
20260503213308 60 265 5.2 6.1 0.00 0.00 0.00 40 1014.9
20260503212804 61 291 5.2 7.8 0.00 0.00 0.00 38 1015.1
20260503212304 61 281 4.3 6.1 0.00 0.00 0.00 39 1015.0
20260503211759 60 279 6.1 8.7 0.00 0.00 0.00 39 1015.1
20260503211255 60 262 4.3 5.2 0.00 0.00 0.00 39 1015.0
20260503210750 60 290 3.5 4.3 0.00 0.00 0.00 38 1014.9
20260503210243 60 258 8.7 9.6 0.00 0.00 0.00 39 1014.9
20260503205743 60 213 4.3 5.2 0.00 0.00 0.00 40 1015.0
20260503205240 60 13 2.6 2.6 0.00 0.00 0.00 41 1015.0